This demonstration page uses our WeatherBlox Daily Observations layout. Learn more.

Left ArrowRight Arrow

Hourly Observations for June 3, 2017

Temp ( °F °C ) Dew Point ( °F °C ) Humidity (%) Winds ( mph kmh ) Pressure ( in mb ) Visibility ( mi km ) Precip ( " mm )
12:53 am 00:53 Clear 71 21.7 68 20 90 90 Calm 30.02 1017 10 16 0.00 0.00
1:53 am 01:53 Clear 70 21.1 68 20 93 93 Calm 30.02 1017 10 16 0.00 0.00
2:53 am 02:53 Clear 68 20 67 19.4 96 96 Calm 29.99 1016 10 16 0.00 0.00
3:53 am 03:53 Clear 68 20 67 19.4 96 96 Calm 29.99 1016 10 16 0.00 0.00
4:53 am 04:53 Clear 66 18.9 66 18.9 100 100 Calm 30.00 1016 8 13 0.00 0.00
5:53 am 05:53 Clear 65 18.3 65 18.3 100 100 Calm 30.01 1016 9 14 0.00 0.00
6:53 am 06:53 Sunny 66 18.9 66 18.9 100 100 Calm 30.03 1017 9 14 0.00 0.00
7:53 am 07:53 Sunny 69 20.6 68 20 96 96 Calm 30.05 1018 10 16 0.00 0.00
8:53 am 08:53 Sunny 74 23.3 68 20 82 82 Calm 30.06 1018 10 16 0.00 0.00
9:53 am 09:53 Partly Cloudy 79 26.1 69 20.6 72 72 Calm 30.07 1018 10 16 0.00 0.00
10:53 am 10:53 Sunny 84 28.9 68 20 59 59 Calm 30.05 1018 10 16 0.00 0.00
11:53 am 11:53 Partly Cloudy 86 30 66 18.9 51 51 N 6 9 30.04 1017 10 16 0.00 0.00
12:53 pm 12:53 Partly Cloudy 87 30.6 65 18.3 48 48 Calm 30.02 1017 10 16 0.00 0.00
1:53 pm 13:53 Partly Cloudy 85 29.4 66 18.9 53 53 NNE 3 6 30.01 1016 10 16 0.00 0.00
2:16 pm 14:16 Cloudy 86 30 65 18.3 49 49 VRB 5 7 30.00 1016 10 16 0.00 0.00
2:53 pm 14:53 Sunny 89 31.7 66 18.9 47 47 VRB 3 6 29.99 1016 10 16 0.00 0.00
3:53 pm 15:53 Mostly Cloudy 87 30.6 64 17.8 46 46 W 5 7 29.97 1015 10 16 0.00 0.00
4:53 pm 16:53 Mostly Cloudy 87 30.6 64 17.8 46 46 VRB 5 7 29.96 1014 10 16 0.00 0.00
5:53 pm 17:53 Mostly Cloudy 86 30 66 18.9 51 51 SSW 7 11 29.95 1014 10 16 0.00 0.00
6:46 pm 18:46 Partly Cloudy with Nearby Thunderstorms 84 28.9 68 20 59 59 SW 7 11 29.94 1014 10 16 0.00 0.00
6:53 pm 18:53 Partly Cloudy with Nearby Thunderstorms 84 28.9 69 20.6 61 61 SW 7 11 29.95 1014 10 16 0.00 0.00
7:01 pm 19:01 Partly Cloudy 85 29.4 69 20.6 59 59 SSW 8 13 29.94 1014 10 16 0.00 0.00
7:23 pm 19:23 Mostly Cloudy with Nearby Thunderstorms 84 28.9 67 19.4 57 57 SSW 9 15 29.94 1014 10 16 0.00 0.00
7:34 pm 19:34 Mostly Cloudy with Thunderstorms 82 27.8 69 20.6 65 65 undefined N/A 29.97 1015 10 16 0.00 0.00
7:53 pm 19:53 Mostly Cloudy with Thunderstorms 79 26.1 69 20.6 72 72 NNE 6 9 29.98 1015 10 16 0.00 0.00
8:19 pm 20:19 Mostly Sunny 75 23.9 67 19.4 76 76 N 8 13 29.97 1015 10 16 0.00 0.03
8:53 pm 20:53 Cloudy 78 25.6 65 18.3 64 64 S 6 9 29.98 1015 10 16 0.00 0.03
9:53 pm 21:53 Mostly Cloudy 77 25 68 20 74 74 Calm 29.98 1015 10 16 0.00 0.00
10:53 pm 22:53 Mostly Clear 74 23.3 70 21.1 88 88 Calm 30.00 1016 10 16 0.00 0.00
11:53 pm 23:53 Partly Cloudy 73 22.8 71 21.7 94 94 NNE 3 6 29.99 1016 10 16 0.00 0.00

Powered by AerisWeather